Regional Weather Roundup
Issued by NWS

Home | Current Version | Previous Version | Text Only | Print | Product List | Glossary Off
Versions: 1 2 3 4 5 6 7 8 9 10 11 12 13 14 15 16 17 18 19 20 21 22 23 24 25 26 27 28 29 30 31 32 33 34 35 36 37 38 39 40 41 42 43 44 45 46 47 48 49 50

000
ASUS43 KMKX 271659
RWRWI

WISCONSIN REGIONAL WEATHER ROUNDUP
NATIONAL WEATHER SERVICE MILWAUKEE/SULLIVAN WI
1100 AM CST FRI FEB 27 2015

NOTE: "FAIR" INDICATES FEW OR NO CLOUDS BELOW 12,000 FEET WITH NO
SIGNIFICANT WEATHER AND/OR OBSTRUCTIONS TO VISIBILITY.

WIZ001-002-006>008-014>016-023>028-271800-
NORTHWEST WISCONSIN

CITY           SKY/WX    TMP DP  RH WIND       PRES   REMARKS
SUPERIOR ARPT  SUNNY      6  -6  59 SW8       30.50S WCI  -7
ASHLAND        SUNNY      9  -8  46 SW13      30.47S WCI  -7
HAYWARD        SUNNY      4  -8  57 SW8       30.46S WCI  -9
SIREN          SUNNY      5  -5  61 SW10      30.51S WCI -10
CUMBERLAND     SUNNY      3  -8  60 W10       30.49R WCI -12
RICE LAKE      SUNNY      3  -6  64 W7        30.52S WCI  -9
CHETEK         SUNNY      4  -8  58 W6        30.51S WCI  -7
LADYSMITH      SUNNY      5  -7  56 S6        30.48F WCI  -6
EAU CLAIRE     NOT AVBL
MENOMONIE      SUNNY      7  -6  57 W8        30.55S WCI  -6
NEW RICHMOND   SUNNY      7  -4  61 W7        30.53S WCI  -5
OSCEOLA        SUNNY      7  -3  64 SW7       30.57S WCI  -4
$$

WIZ003>005-009-010-017-018-271800-
NORTH CENTRAL WISCONSIN

CITY           SKY/WX    TMP DP  RH WIND       PRES   REMARKS
MANITOWISH WTR SUNNY      4  -9  53 W10       30.38S WCI -11
ARBOR VITAE    SUNNY      8  -6  52 W7        30.37F WCI  -4
WOODRUFF       SUNNY      8  -6  52 W7        30.37F WCI  -4
RHINELANDER    SUNNY      7  -6  55 W13       30.39S WCI  -9
EAGLE RIVER    SUNNY      6 -10  48 W14G21    30.37S WCI -11
LAND O LAKES   SUNNY      9  -8  46 W7        30.36S WCI  -2
PHILLIPS       SUNNY      6  -9  50 SW9       30.41S WCI  -8
TOMAHAWK       SUNNY      7  -9  48 W9G16     30.42S WCI  -6
MEDFORD        SUNNY      3 -10  55 SW9       30.44S WCI -12
MERRILL        SUNNY      8  -9  46 W7        30.44S WCI  -4
$$

WIZ029-030-035-036-043>047-271800-
CENTRAL WISCONSIN

CITY           SKY/WX    TMP DP  RH WIND       PRES   REMARKS
WAUSAU         SUNNY      5  -9  52 W13       30.47R WCI -12
MOSINEE        SUNNY      7  -8  51 W12       30.48R WCI  -9
MARSHFIELD     SUNNY      5  -8  55 W8        30.49R WCI  -8
STEVENS POINT  SUNNY      5 -10  49 W8        30.50S WCI  -8
WAUPACA        SUNNY     13  -7  39 SW13      30.52F WCI  -1
WAUTOMA        NOT AVBL
WISC RAPIDS    SUNNY      8  -9  45 W10       30.53R WCI  -6
CAMP DOUGLAS   NOT AVBL
$$

WIZ011>013-019>022-031-037>040-048>050-271800-
NORTHEAST WISCONSIN

CITY           SKY/WX    TMP DP  RH WIND       PRES   REMARKS
ANTIGO         SUNNY      6  -9  52 W10       30.41S WCI  -9
SHAWANO        SUNNY     12  -5  44 W8        30.50S WCI   1
OCONTO         SUNNY     11  -5  47 W12G18    30.50S WCI  -3
STURGEON BAY   SUNNY      9  -6  52 W13       30.51R WCI  -7
GREEN BAY      SUNNY     11  -4  51 SW10      30.52S WCI  -3
MANITOWOC      NOT AVBL
APPLETON       SUNNY     10  -6  48 W10       30.51S WCI  -3
CLINTONVILLE   SUNNY     10  -6  48 W10       30.50F WCI  -3
OSHKOSH        SUNNY     10  -5  50 W9G17     30.53S WCI  -3
$$

WIZ032>034-041-042-053>061-271800-
SOUTHWEST WISCONSIN

CITY           SKY/WX    TMP DP  RH WIND       PRES   REMARKS
LA CROSSE      SUNNY      5  -6  60 S7        30.61R WCI  -7
SPARTA         SUNNY      8  -7  51 W5        30.57S WCI  -1
VIROQUA        SUNNY      5  -7  58 CALM      30.53R
BOSCOBEL       SUNNY      7  -6  55 S5        30.62S WCI  -2
PRAIRIE DU CHI SUNNY      2 -10  57 CALM      30.63S
PLATTEVILLE    SUNNY      0  -7  71 S3        30.59R
$$

WIZ056-057-062-063-064-067-068-271800-
SOUTH CENTRAL WISCONSIN

CITY           SKY/WX    TMP DP  RH WIND       PRES   REMARKS
REEDSBURG      SUNNY      8  -5  55 W5        30.56S WCI  -1
BARABOO/DELLS  SUNNY      8  -7  51 SW6       30.55S WCI  -2
LONE ROCK      NOT AVBL
MINERAL POINT  SUNNY      5  -8  56 W3        30.56R
MADISON        SUNNY     10  -8  44 W6        30.57R WCI   0
MIDDLETON      SUNNY     12  -8  40 W5        30.57R WCI   4
WATERTOWN      SUNNY     10  -5  52 W3        30.56S
MONROE         SUNNY      9  -4  56 W7        30.56R WCI  -3
JANESVILLE     NOT AVBL
$$

WIZ051-052-058>065-066-070>072-271800-
SOUTHEAST WISCONSIN

CITY           SKY/WX    TMP DP  RH WIND       PRES   REMARKS
MILWAUKEE      SUNNY     14  -7  38 W6        30.57R WCI   5
WAUKESHA       SUNNY      9  -6  52 W6        30.56R WCI  -1
MILWAUKEE/TIMM NOT AVBL
RACINE         SUNNY     11  -5  48 W7        30.60R WCI   0
BURLINGTON     SUNNY     10  -5  50 SW7       30.58R WCI  -1
KENOSHA        SUNNY     10  -4  53 W10       30.58R WCI  -4
FOND DU LAC    SUNNY     11  -6  46 W10       30.55R WCI  -3
SHEBOYGAN      SUNNY     12  -5  46 W14       30.54R WCI  -3
WEST BEND      SUNNY     12  -8  40 W8        30.54R WCI   1
JUNEAU         SUNNY      9  -4  54 W8        30.56S WCI  -3
$$

LSZ147-162-271800-
LAKE SUPERIOR

STATION/POSITION TIME  TEMP    WIND        PRES    WAVE
                       AIR SEA DIR/SP/G            HT/PER
                 (UTC) (F)     (DEG/KT/KT) (MB)    (FT/S)
DEVILS ISLAND    1600    4     240/ 17/ 21 1033.0S
PORT WING        1600    4     220/  6/ 10 1032.5
SAXON HARBOR     1600    6      CALM  /  7 1031.8F
$$

LMZ867-665-643>646-271800-
LAKE MICHIGAN

STATION/POSITION TIME  TEMP    WIND        PRES    WAVE
                       AIR SEA DIR/SP/G            HT/PER
                 (UTC) (F)     (DEG/KT/KT) (MB)    (FT/S)
NORTHPORT PIER   1629   10     280/  4/ 12 1032.2S
KEWAUNEE LAKESHO 1600    9     270/  8/ 11 1032.1F
SHEBOYGAN LAKESH 1600   10     260/  9/ 12 1036.2R
PORT WASHINGTON  1640   15     270/  9/ 13 1035.6S
MILWAUKEE LAKESH 1600   12     290/  6/  9   N/A
KENOSHA   LAKESH 1600    7     280/  8/ 11 1034.9R
$$

TC  - TEMPERATURE IN CELSIUS
VSB - VISIBILITY IN STATUTE MILES
WCI - WIND CHILL INDEX
HX  - HEAT INDEX




USA.gov is the U.S. government's official web portal to all federal, state and local government web resources and services.